Regional Weather Roundup
Issued by NWS Wakefield, VA

Home | Current Version | Previous Version | Text Only | Print | Product List | Glossary On
Versions: 1 2 3 4 5 6 7 8 9 10 11 12 13 14 15 16 17 18 19 20 21 22 23 24 25 26 27 28
000
ASUS41 KAKQ 311210
RWRAKQ

REGIONAL WEATHER ROUNDUP
NATIONAL WEATHER SERVICE WAKEFIELD VA
800 AM EDT FRI OCT 31 2014

Note: "fair" indicates few or no clouds below 12,000 feet with no
significant weather and/or obstructions to visibility. * = Denotes
station may not report precipitation (e.g., rain,snow,etc.),
thunder or fog.

VAZ042-051-052>054-056-311300-
NORTHERN VIRGINIA

CITY           SKY/WX    TMP DP  RH WIND       PRES   REMARKS
WASH NATIONAL  MOCLDY    48  37  65 N5        30.01S
DULLES         MOCLDY    37  35  92 NW3       30.00S
FORT BELVOIR   CLEAR     37  36  93 CALM      29.99F
QUANTICO       CLEAR     40  36  86 NW9       30.01S
FREDERICKSBRG* PTCLDY    38  38 100 CALM      29.99S
STAFFORD*      CLEAR    N/A N/A N/A CALM      30.04R HAZE
WARRENTON      CLEAR     32  32 100 SE3       30.00R FOG
CULPEPER*      CLOUDY    36  36 100 CALM      30.00S
MANASSAS*      MOCLDY    37  37 100 CALM      30.00S
LEESBURG*      CLOUDY    37  37 100 CALM      30.01S
WINCHESTER     CLOUDY    37  34  87 CALM      29.98F
FRONT ROYAL*   CLOUDY    36  34  93 CALM      29.98F
LURAY*         CLOUDY    36  36 100 CALM      30.00R
$$

VAZ048-049-060>072-079>083-311300-
CENTRAL AND SOUTH CENTRAL VIRGINIA...AND NORTH CENTRAL NORTH CAROLINA

CITY           SKY/WX    TMP DP  RH WIND       PRES   REMARKS
RICHMOND       MOCLDY    45  39  79 N6        29.98S
CHESTERFIELD*  CLOUDY    43  30  61 N5        29.99S
PETERSBURG*    CLOUDY    43  39  88 N3        29.98S
HANOVER        PTCLDY    39  37  92 CALM      30.00S
TAPPAHANNOCK*  PTCLDY    40  37  89 CALM      29.99R
CHARLOTTSVILLE CLOUDY    40  35  83 CALM      29.98F
ORANGE*        CLOUDY    41  37  87 CALM      30.00S
LOUISA*        CLOUDY    39  37  93 N3        29.97F
FARMVILLE*     CLOUDY    39  37  93 CALM      29.96F
CREWE*         CLOUDY    40  37  88 CALM      29.97S
FORT PICKETT*  CLOUDY    42  37  83 N5        29.98R
LUNENBURG*     CLOUDY    42  37  82 CALM      29.97S
SOUTH HILL*    CLOUDY    43  41  93 N5        30.02R
LAWRENCEVILLE* CLOUDY    42  39  87 N3        29.96S
ROANOKE RAPIDS CLOUDY    43  39  87 N5        29.96R
RALEIGH        PTCLDY    43  38  82 N6        29.96R
$$

VAZ088>098-311300-
SOUTHEAST VIRGINIA

CITY           SKY/WX    TMP DP  RH WIND       PRES   REMARKS
NORFOLK        CLOUDY    56  43  61 NE12      29.94S
VIRGINIA BEACH CLOUDY    56  48  74 N8        29.93S
NORFOLK NAVAL  CLOUDY    57  41  55 NE12      29.96S
WEST POINT*    CLOUDY    43  41  91 CALM      29.98F
NEWPORT NEWS   CLOUDY    50  44  80 N7        29.95F
LANGLEY AFB    CLOUDY    50  46  85 N6        29.95S
FORT EUSTIS    CLOUDY    49  49 100 VRB5      29.94F
WILLIAMSBURG*  CLOUDY    46  46 100 CALM      29.97F
HR EXEC AP*    CLOUDY    43  39  87 CALM      29.97F
FRANKLIN*      CLOUDY    45  45 100 CALM      29.96R
WAKEFIELD      CLOUDY    44  41  89 CALM      29.96F
$$

VAZ020-022-025-037-045-311300-
WEST CENTRAL AND SOUTHWEST VIRGINIA

CITY           SKY/WX    TMP DP  RH WIND       PRES   REMARKS
STAUNTON*      CLOUDY    33  32  93 CALM      30.00F
HOT SPRINGS VA PTCLDY    33  30  88 CALM      29.89F
LYNCHBURG      CLOUDY    40  35  83 CALM      29.99S
DANVILLE       CLEAR     35  32  88 CALM      29.97F
SOUTH BOSTON*  NOT AVBL
MARTINSVILLE   CLOUDY    34  34 100 CALM      30.01S
ROANOKE        PTCLDY    36  32  85 CALM      30.00F
BLACKSBURG     MOCLDY    36  36 100 CALM      29.98F FOG
DUBLIN*        PTCLDY    34  34  99 CALM      29.98S
MARION*        CLEAR     32  31  96 CALM      29.98S FOG
HILLSVILLE*    CLEAR     33  32  98 SW3       29.95S FOG
RICHLANDS*     MOSUNNY   37  35  91 NW3       29.94S
WISE*          CLOUDY    37  32  81 CALM      29.95S
ABINGDON*      CLEAR     36  34  94 E5        29.95S
$$

MDZ021>025-VAZ099-100-311300-
SOUTHERN MARYLAND AND THE DELMARVA PENINSULA

CITY           SKY/WX    TMP DP  RH WIND       PRES   REMARKS
PATUXENT RIVER PTCLDY    48  40  73 E7        29.99R
BAY BRIDGE APT   N/A     46  34  61 NE3       29.99F
LEONARDTOWN    PTCLDY    37  36  93 CALM      30.00R
DOVER          PTCLDY    40  37  89 N8        29.97F
GEORGETOWN     MOCLDY    40  36  86 CALM      29.99F
EASTON         NOT AVBL
CAMBRIDGE      PTCLDY    45  37  76 NE5       29.99R
SALISBURY      MOCLDY    45  39  79 CALM      29.99S
OCEAN CITY     CLOUDY    48  40  73 N6        29.98S
WALLOPS ISLAND CLOUDY    46  39  76 N7        29.98S
ACCOMACK*      CLOUDY    45  37  76 N6        29.97S
$$

NCZ012>017-030>032-311300-
EASTERN NORTH CAROLINA

CITY           SKY/WX    TMP DP  RH WIND       PRES   REMARKS
ELIZABETH CITY MOCLDY    55  46  71 N10       29.93S
AHOSKIE*       NOT AVBL
EDENTON*       MOCLDY    48  46  90 N3        29.94R
CURRITUCK*     MOCLDY    50  46  84 NW3       29.93F
KILL DEVIL HLS MOCLDY    59  44  56 N7G16     29.89S
MANTEO         MOCLDY    59  46  61 N15       29.90S
CAPE HATTERAS  CLOUDY    60  50  69 NE9G23    29.85S
TARBORO*       CLOUDY    45  43  92 CALM      29.97R
GOLDSBORO      CLOUDY    47  47  97 N6        29.92R
WASHINGTON     CLOUDY    47  44  90 N5        29.93R
GREENVILLE     CLOUDY    46  45  93 N3        29.96R
NEW BERN       CLOUDY    53  47  79 N7        29.92R
WILMINGTON     PTCLDY    50  47  89 N7        29.89F
$$

VAZ048-311300-
ELSEWHERE

CITY           SKY/WX    TMP DP  RH WIND       PRES   REMARKS
HARRISBURG PA  CLOUDY    46  36  68 E3        30.00F
BALTIMORE      MOCLDY    48  38  68 NE7       30.00R
ANNAPOLIS      MOCLDY    50  37  61 NE6       29.99F
ANDREWS AFB    MOCLDY    40  35  81 N2        29.99S
WILMINGTON DE  CLEAR     38  33  82 N3        30.02S
PHILADELPHIA   PTCLDY    41  32  70 N6        30.02S
WILDWOOD NJ*   PTCLDY    41  30  65 N6        30.01S
ATLANTIC CITY  CLEAR     36  32  85 N5        30.00S
HENDERSON NC   PTCLDY    41  37  87 N5        29.97R
GREENSBORO     PTCLDY    41  35  79 N5        29.96S
ROCKY MOUNT    CLOUDY    46  42  86 N5        29.95R
FAYETTEVILLE   CLEAR     46  44  93 N10       29.93R
CHARLOTTE      CLEAR     40  36  86 N6        29.96S
$$

VAZ100-311300-
MARINE

STATION/POSITION TIME  TEMP    WIND        PRES    WAVE   SWELL
                       AIR SEA DIR/SP/G            HT/PER HT/PER
                 (UTC) (F)     (DEG/KT/KT) (MB)    (FT/S) (FT/S)
44066 TX TWR #4  1200   56 64   20/  6/ 10 1014.4S   2/ 8   2/ 8
CAPE MAY NJ      1200   45 64   30/  4/  7 1015.1R
LEWES DE         1200   52 57   40/ 13/ 15 1015.2S
15NM E FENWICK I 1200   54 63              1014.5F   3/ 4
OCEAN-CITY-INLET 1200   53 62   20/  6/ 10 1014.6R
WACHAPREAGUE VA  1200   47 60  360/  5/  7 1014.5F
THOMAS POINT MD  1200   49 60   80/ 11/ 12 1016.6F
GOOSES REEF MD   1200   51      90/ 10/ 12 1015.5R
COVE POINT MD    1200   50      80/ 13/ 15 1015.1R
SOLOMONS ISLAND  1200      62                N/A
BISHOPS HEAD MD  1200   48 57   30/  8/ 10 1014.6F
PINEY POINT MD   1200           80/  5/  6   N/A
POTOMAC MD       1200   54      70/ 12/ 14 1014.2R
CAMBRIDGE MD     1200   49 60   60/ 10/ 12 1014.8F
LEWISETTA VA     1200   54 60   70/  9/ 11 1014.6S
RAPPAHANNOCK LGT 1200           40/ 14/ 16 1015.0R
STINGRAY PT      1200   55      50/ 12/ 14 1015.2S
YORK RVR RNG VA  1200   55      20/ 10/ 12 1013.8F
YORKTOWN VA      1200   51 63   10/ 10/ 11 1014.1F
JAMESTOWN VA     1200   47      50/  6/  8   N/A
DOMINION TERM VA 1200   51      20/  6/  7 1014.0F
KIPTOPEKE VA     1200      67   30/  5/  7   N/A
CHES BAY BRIDGE  1200   57 63   30/ 14/ 16 1013.3F
CHESAPEAKE LGHT  1100   58      30/ 13/ 16 1014.3F
WILLOUBY STN VA  1200   56      20/ 10/ 12 1012.5S
S CRANEY ISL VA  1200           10/ 10/ 12 1013.7S
CAPE HENRY BUOY  1200      65                N/A     2/ 4
1ST LANDING BUOY 1200   57      40/ 16/ 17 1013.7S
CAPE CHARLES BUO 1200      65                N/A     3/ 4   2/ 6
64NM E OF VA BCH 1200   60 66   30/ 14/ 17 1012.3R   3/ 4   2/ 7
DUCK PIER NC     1200   60 65   20/ 17/ 20 1011.8R
44100 DUCK FRF   1200      67                N/A     3/ 4
OREGON INLET NC  1200   60 66   10/ 14/ 19 1011.8R
HATTERAS NC      1200   62 66   20/ 19/ 25 1011.1F
DIAMOND SHLS NC  1200   63      20/ 21/ 27 1009.9R   6/ 6
CAPE LOOKOUT NC  1100   60      10/ 18/ 24 1011.2R
$$



USA.gov is the U.S. government's official web portal to all federal, state and local government web resources and services.